Theta_e
310 307 306 306 308 307 306 304 303 307 309 308 308 309 315 320 321 321 321 322 322 323 328 332 330 339 346 348 352 355 355 358 354 348 347 346 346 347 347 348 350 351 351 351
308 305 308 308 308 306 306 304 305 308 309 309 308 310 316 319 320 321 321 323 328 332 335 334 330 334 345 348 350 355 356 359 358 352 352 345 345 349 349 350 344 348 345 353
307 307 308 306 307 306 306 305 304 304 308 309 309 309 313 317 320 322 323 324 328 336 338 338 335 329 336 344 347 350 359 360 360 358 354 347 343 353 347 349 349 352 352 353
307 308 306 307 305 307 304 307 306 305 305 302 309 302 310 315 316 319 321 326 329 332 340 342 341 340 336 337 340 347 349 358 357 359 356 355 343 346 347 349 351 351 351 347
305 306 306 307 307 308 306 308 307 306 306 306 304 304 308 314 313 316 321 327 329 332 335 336 342 346 344 340 340 343 343 350 354 355 356 350 351 347 351 349 351 353 353 349
307 310 308 309 310 309 309 308 308 308 306 300 302 304 305 308 311 316 324 327 329 330 333 336 340 345 349 349 345 343 345 346 351 352 352 352 351 350 347 349 348 348 346 345
307 308 311 311 308 309 309 307 302 299 300 298 304 303 306 311 315 317 322 325 328 330 331 334 337 339 344 349 348 348 348 347 349 350 351 351 353 354 353 351 346 344 338 336
304 301 308 312 307 307 307 306 300 293 296 298 304 301 304 314 318 321 323 325 327 328 331 334 337 340 341 348 352 353 353 351 352 351 353 354 354 348 344 342 342 342 341 340
304 302 310 311 312 311 307 305 308 303 303 299 304 305 309 315 316 318 320 323 324 326 330 333 336 340 341 345 350 351 347 347 349 348 346 344 343 342 340 340 340 339 337 329
308 302 308 310 312 312 310 309 303 306 296 294 300 302 305 311 313 316 318 321 325 327 328 330 333 336 342 346 347 345 348 346 344 341 342 342 338 337 336 336 333 331 328 325
311 308 306 310 307 306 308 308 307 306 303 296 295 301 311 313 314 315 318 322 325 325 326 328 330 332 335 337 337 336 340 343 342 343 342 341 336 335 335 335 330 325 323 324
310 309 303 304 309 310 309 306 306 301 299 302 300 300 314 314 314 317 318 321 322 322 321 320 325 331 332 334 335 332 331 331 335 340 339 339 336 335 335 333 332 332 325 322
311 307 300 302 306 309 306 306 307 306 306 299 296 300 312 313 313 315 316 318 317 318 318 319 319 320 326 331 334 335 333 330 331 338 337 338 336 336 334 330 329 328 327 328
313 307 303 298 301 305 302 303 305 305 300 301 301 302 308 310 311 313 314 315 315 316 317 318 319 319 321 324 332 333 335 336 332 338 337 337 338 336 332 331 331 329 328 327
311 304 304 304 304 304 303 303 304 303 304 300 303 303 307 311 312 313 314 314 314 315 316 317 318 320 321 322 324 329 335 335 337 333 336 335 335 336 334 332 330 329 327 327
310 305 305 302 304 303 302 303 303 303 303 303 303 304 313 314 315 315 314 313 313 314 314 316 317 318 320 322 323 324 328 335 337 338 335 335 333 333 333 331 329 329 327 327
306 305 303 298 302 302 299 301 301 303 305 305 302 308 312 312 314 316 314 314 313 313 314 316 317 319 320 322 323 323 325 331 336 335 334 332 327 326 326 330 329 329 326 327
305 304 304 299 302 293 302 308 306 304 305 307 307 310 312 314 315 317 316 313 313 313 315 316 317 318 319 323 324 324 324 324 327 333 334 333 328 326 325 327 328 327 327 323
309 306 301 297 297 300 302 303 303 302 303 308 308 308 309 310 312 313 315 314 314 314 315 316 316 316 318 319 322 322 322 323 324 327 331 331 331 324 325 325 324 320 320 320
306 308 302 300 294 291 301 304 308 308 299 308 308 308 308 309 303 308 314 313 313 315 316 315 316 315 316 318 320 320 319 320 322 325 331 332 329 326 326 320 317 319 319 316
302 302 298 298 296 299 304 306 308 297 300 308 308 308 307 305 307 310 311 311 312 312 313 314 314 313 315 318 320 319 319 320 325 329 329 326 318 317 316 317 319 319 317 315
298 298 299 300 296 293 307 305 300 306 309 308 308 308 306 307 308 308 308 309 310 310 310 311 311 313 317 321 320 319 320 326 327 328 319 316 312 311 315 315 317 315 315 312
299 304 301 300 301 308 308 307 309 308 305 305 305 306 306 305 305 307 308 309 309 311 312 313 313 315 319 322 323 320 324 327 325 315 310 309 305 304 307 309 310 309 312 309
305 305 302 302 304 306 307 307 305 305 305 306 307 307 307 307 307 307 309 309 309 310 311 313 315 316 317 321 321 325 327 327 318 311 308 308 304 302 304 306 307 307 307 307
305 304 302 302 305 305 303 303 305 307 308 308 309 310 310 310 310 310 310 311 311 310 311 312 313 315 317 321 322 325 324 320 312 307 305 301 301 301 298 298 299 301 298 298
306 302 300 298 302 301 302 306 308 308 308 309 309 309 310 310 309 310 310 311 313 313 313 313 314 316 318 320 320 323 322 318 311 306 304 302 303 301 302 301 298 292 293 292
Wind_Speed
2 9 5 7 5 5 4 3 3 2 4 9 6 5 10 9 9 10 10 9 11 13 15 12 11 11 17 17 17 15 15 13 11 11 12 10 10 11 12 12 14 13 5 9
8 7 4 4 3 4 3 5 5 6 3 8 6 7 13 12 14 14 15 15 14 13 12 10 10 10 11 15 15 15 15 15 15 13 10 3 10 11 10 2 5 7 6 17
5 7 1 4 3 6 3 7 8 8 9 3 6 11 8 8 14 16 17 17 17 15 14 14 13 6 7 9 13 14 15 14 13 14 8 5 1 9 6 7 7 4 2 4
1 4 4 6 2 7 2 6 5 6 9 6 7 8 11 10 16 18 19 19 19 19 19 18 16 15 10 6 3 6 9 10 11 12 11 8 4 8 7 7 7 5 2 4
8 3 5 5 9 5 8 5 5 4 2 7 4 6 14 15 14 16 19 20 20 19 18 19 20 18 14 11 8 5 0 6 8 8 9 8 8 5 2 3 6 7 9 10
4 2 4 8 8 5 3 8 6 6 6 5 3 9 12 10 14 15 16 18 20 20 21 21 19 17 17 14 12 9 8 3 6 7 8 8 7 8 8 9 6 7 8 7
6 4 1 4 8 5 8 8 3 3 1 4 2 7 8 10 13 14 15 17 19 20 21 22 23 20 18 16 12 10 7 7 7 10 9 8 8 7 7 5 4 3 4 5
2 9 3 8 7 6 6 7 7 5 5 8 7 1 8 8 12 13 15 16 18 20 19 21 22 20 19 16 14 9 9 5 7 6 8 7 7 1 5 3 4 5 5 6
3 5 3 5 7 5 4 4 5 8 6 9 3 8 5 9 13 16 18 20 21 20 20 21 21 21 19 16 16 13 6 4 5 7 6 6 6 7 6 7 7 7 6 4
5 4 2 3 4 6 8 3 5 4 6 9 6 8 5 11 15 16 18 18 18 18 18 19 19 21 19 18 14 11 9 8 7 6 7 8 6 7 7 6 6 7 6 6
6 3 5 6 6 10 5 2 2 5 5 9 10 4 5 8 10 12 13 14 15 17 17 18 18 19 18 18 15 12 12 9 7 9 12 10 7 7 7 8 7 7 7 6
6 6 8 8 3 2 3 3 5 6 8 9 7 8 5 6 9 9 10 11 13 13 16 17 17 17 18 18 15 11 10 11 12 12 12 8 6 5 6 8 8 8 9 6
8 2 7 8 9 5 3 3 3 5 7 12 11 4 5 4 4 6 9 11 11 13 16 16 17 17 18 17 16 14 9 8 10 13 12 6 3 4 6 7 6 8 8 7
3 4 8 10 13 8 12 10 9 7 9 12 11 13 7 5 5 6 8 9 11 12 13 15 15 15 16 16 15 13 12 9 9 14 10 6 3 4 5 5 5 6 6 5
5 6 5 9 8 10 13 14 13 14 14 15 15 16 15 7 5 4 4 5 8 11 14 14 15 14 14 15 15 14 12 12 10 10 11 5 4 2 2 2 4 4 4 3
2 6 8 12 6 9 13 14 13 13 11 13 9 11 9 4 4 5 6 7 8 10 11 13 14 16 16 15 15 15 14 12 11 11 10 5 3 0 1 4 3 4 3 4
5 5 6 8 3 11 13 5 6 6 5 7 9 13 6 3 7 9 8 8 10 11 13 14 15 15 14 13 13 14 15 14 13 11 8 4 2 1 4 4 5 3 4 2
4 4 4 7 9 9 9 7 5 5 3 6 9 8 8 9 11 11 6 8 12 14 16 16 16 17 16 13 13 14 15 14 13 11 9 4 5 5 5 5 5 4 4 4
4 5 3 7 6 11 8 7 8 9 8 6 8 8 7 9 12 16 2 10 15 15 15 14 15 16 16 15 13 14 14 14 14 13 10 8 6 5 6 4 5 4 5 4
5 4 6 4 8 7 7 7 10 6 9 7 9 11 12 14 12 9 18 17 18 18 16 17 17 17 17 17 15 15 14 13 14 16 11 8 3 7 4 6 3 2 5 6
3 4 7 7 6 5 7 10 10 10 7 13 13 14 13 13 12 17 19 20 20 19 21 20 19 16 16 17 15 15 15 13 14 14 8 7 10 9 5 7 1 3 4 6
4 5 4 2 5 8 11 8 8 11 14 15 16 13 15 17 19 21 20 20 20 21 21 20 17 15 15 15 13 13 14 13 14 9 9 9 10 9 4 8 5 5 3 5
4 3 6 4 7 6 5 6 9 12 14 14 15 16 18 19 19 18 17 18 17 18 16 16 15 14 14 15 12 12 13 14 10 9 10 10 11 8 8 7 3 3 4 4
6 3 6 7 4 6 10 11 7 12 14 15 15 16 17 19 20 20 18 17 17 16 15 14 14 14 15 15 12 11 13 12 8 10 9 7 9 8 4 7 6 7 8 6
6 1 8 10 12 9 5 7 11 14 15 16 16 17 18 19 19 19 17 17 16 16 15 15 14 14 15 13 12 12 10 7 9 9 7 6 6 8 8 10 8 8 10 11
2 4 5 5 10 9 12 14 15 15 15 16 18 19 19 19 20 20 18 16 15 15 15 15 15 14 12 11 10 11 7 5 8 6 5 5 5 3 6 8 10 12 10 12
Wind_Direction
191 236 59 29 6 348 325 312 321 18 42 306 20 319 37 37 31 28 8 348 322 309 316 308 289 264 227 240 222 218 220 213 212 211 222 227 261 231 232 231 234 252 267 249
211 99 61 333 317 280 250 283 43 253 29 295 5 77 79 59 59 52 35 26 10 350 354 350 323 265 233 235 244 222 223 214 209 215 223 129 282 278 265 310 268 217 233 229
340 71 308 286 308 235 142 353 6 346 316 219 278 105 79 75 62 33 29 25 24 21 14 21 17 344 258 228 234 232 226 225 224 237 214 239 175 221 270 262 259 307 33 271
302 119 293 303 252 311 99 23 325 320 299 80 307 115 78 32 38 34 29 26 21 22 24 31 31 34 24 346 268 252 255 233 228 227 244 236 233 254 296 321 9 352 229 238
93 258 324 278 15 323 40 345 334 312 153 241 73 276 76 41 19 20 20 25 22 25 32 31 22 36 50 48 27 100 33 236 228 215 226 235 242 251 293 248 216 196 165 168
287 305 283 4 322 283 318 259 205 222 207 189 29 304 81 25 11 10 18 24 21 19 26 32 26 34 32 35 56 59 77 176 179 188 190 201 208 218 219 223 232 206 180 188
176 138 146 300 287 181 223 283 252 222 265 40 34 255 52 29 22 16 15 21 21 17 20 21 23 21 26 30 41 58 67 113 149 169 174 179 190 205 230 244 284 268 220 225
273 157 30 28 14 358 36 330 360 309 347 359 141 69 81 48 29 20 24 25 24 21 21 16 22 16 16 23 23 48 74 95 123 151 150 158 160 86 20 20 286 268 263 310
277 121 170 23 19 321 73 15 6 301 202 260 73 114 163 38 25 16 16 19 20 19 21 21 25 17 13 14 30 34 49 73 84 82 59 57 44 28 27 10 348 336 1 59
48 274 118 63 245 99 15 61 263 230 292 307 294 278 63 26 10 6 11 13 15 18 23 25 30 27 17 16 55 14 11 38 63 48 16 7 28 39 39 36 32 28 38 62
353 282 119 232 31 352 314 244 334 291 298 309 300 358 39 24 15 360 9 9 13 17 21 25 28 29 32 28 16 7 358 10 27 355 355 3 19 38 64 70 82 95 91 89
36 317 293 8 56 228 315 24 354 315 318 310 290 291 50 26 23 6 11 16 22 20 24 27 25 31 24 25 29 12 359 354 336 345 344 356 3 55 74 85 86 91 102 99
0 99 285 198 183 182 290 39 338 294 273 275 294 343 131 74 28 22 15 14 23 23 22 23 25 21 21 22 21 14 5 338 331 344 345 348 37 64 82 89 94 105 114 120
274 278 281 294 331 323 296 299 304 286 282 311 288 301 269 67 351 21 16 10 14 17 21 22 21 22 21 17 16 9 351 342 323 328 352 356 17 67 87 99 102 110 102 112
353 277 283 290 290 288 288 291 295 287 285 282 301 301 307 22 344 6 10 356 2 9 14 12 11 9 12 10 6 360 358 341 339 326 325 331 336 52 89 100 106 100 84 75
6 287 300 286 281 280 280 281 285 293 288 278 294 285 54 67 301 330 346 347 353 3 4 6 4 3 1 359 356 354 348 344 329 325 315 303 291 133 179 173 167 136 121 115
293 312 294 290 353 299 264 59 323 304 306 336 323 8 356 287 314 333 333 335 344 347 347 347 346 344 348 348 347 346 343 336 334 329 321 348 64 344 259 219 190 170 140 92
279 276 300 294 296 264 55 21 347 313 315 342 326 327 341 345 323 303 286 344 337 337 331 331 335 337 337 335 335 334 336 336 324 314 307 294 230 229 219 247 210 137 105 122
239 268 290 281 301 303 149 33 1 343 335 15 347 353 345 332 312 288 87 351 335 329 330 332 331 330 328 329 326 324 323 328 323 313 298 275 234 222 234 244 89 96 130 112
140 242 267 307 290 292 48 12 339 303 266 30 345 330 330 327 300 310 356 330 321 318 314 315 318 315 318 320 317 307 312 315 322 319 303 290 251 234 184 99 82 109 117 114
233 277 276 276 264 278 44 349 310 249 34 339 329 318 319 313 320 315 308 306 307 308 306 311 308 312 318 316 318 311 308 323 327 322 325 35 48 43 15 73 67 92 85 103
284 290 260 265 269 257 17 323 343 347 317 315 312 310 310 307 306 307 309 311 312 312 310 306 312 316 320 322 321 315 313 333 330 359 74 65 62 42 357 64 51 58 116 100
252 319 343 284 346 7 347 335 316 314 312 317 315 312 310 308 307 309 311 312 317 315 316 323 323 319 330 334 326 321 332 330 351 99 90 90 78 54 20 70 232 134 57 12
172 221 256 306 178 322 315 312 330 324 318 314 311 308 302 300 302 305 306 311 310 311 320 320 322 327 330 334 329 342 343 343 96 103 107 104 97 89 29 58 25 24 9 13
346 298 284 286 276 327 278 343 333 320 311 304 303 304 306 305 303 308 310 309 306 307 309 315 318 320 329 347 340 357 358 66 88 90 89 97 100 88 75 62 30 78 48 26
276 337 274 315 347 305 304 321 319 309 307 311 307 304 302 302 299 299 298 301 303 304 309 307 303 310 332 345 349 356 8 83 106 113 89 80 78 100 118 112 87 55 68 61